23 mei 2022

Tijd Code Weer Temp. Zicht Wolken Wind METAR/SPECI
19:00
V
23 °C 10 km+ 4.500 ft 150°   150° 3 kt METAR LEGE 231700Z 15003KT 050V210 9999 OVC045 23/15 Q1007
18:30
V
22 °C 10 km+ 4.500 ft 190°   190° 8 kt METAR LEGE 231630Z 19008KT 160V220 9999 OVC045 22/14 Q1007
18:00
V
23 °C 10 km+ 5.000 ft 200°   200° 10 kt METAR LEGE 231600Z 20010KT 170V230 9999 OVC050 23/14 Q1007
17:30
V
23 °C 10 km+ 5.000 ft 210°   210° 11 kt METAR LEGE 231530Z 21011KT 190V250 9999 OVC050 23/15 Q1007
17:00
V
24 °C 10 km+ 5.500 ft 210°   210° 10 kt METAR LEGE 231500Z 21010KT 170V250 9999 BKN055 24/15 Q1007
16:30
V
25 °C 10 km+ - 210°   210° 9 kt METAR LEGE 231430Z 21009KT 170V260 9999 SCT050 25/15 Q1006
16:00
V
26 °C 10 km+ - 190°   190° 9 kt METAR LEGE 231400Z 19009KT 140V250 9999 FEW040 26/15 Q1006
15:30
V
26 °C 10 km+ - 190°   190° 9 kt METAR LEGE 231330Z 19009KT 130V240 9999 FEW040 26/15 Q1006
15:00
V
26 °C 10 km+ - 200°   200° 9 kt METAR LEGE 231300Z 20009KT 160V250 9999 FEW045 26/16 Q1006
14:30
V
26 °C 10 km+ - 190°   190° 9 kt METAR LEGE 231230Z 19009KT 130V240 9999 SCT045 26/15 Q1006
14:00
V
27 °C 10 km+ - 190°   190° 8 kt METAR LEGE 231200Z 19008KT 150V240 9999 FEW040 27/16 Q1007
13:30
V
27 °C 10 km+ - 080°   080° 5 kt METAR LEGE 231130Z 08005KT 9999 FEW040 27/15 Q1007
13:00
V
26 °C 10 km+ - 020°   020° 5 kt METAR LEGE 231100Z 02005KT 340V140 9999 FEW030 26/15 Q1007
12:30
V
26 °C 10 km+ - 080°   080° 5 kt METAR LEGE 231030Z 08005KT 9999 FEW030 26/15 Q1007
12:00
V
25 °C 10 km+ - 070°   070° 5 kt METAR LEGE 231000Z 07005KT 350V140 9999 FEW030 25/16 Q1007
11:30
V
24 °C 10 km+ - 040°   040° 6 kt METAR LEGE 230930Z 04006KT 340V100 CAVOK 24/16 Q1007
11:00
V
24 °C 10 km+ - 050°   050° 6 kt METAR LEGE 230900Z 05006KT 350V110 CAVOK 24/16 Q1007
10:30
V
23 °C 10 km+ - 020°   020° 8 kt METAR LEGE 230830Z 02008KT 350V070 CAVOK 23/16 Q1007
10:00
V
22 °C 10 km+ - 050°   050° 6 kt METAR LEGE 230800Z 05006KT 020V080 CAVOK 22/16 Q1007
09:30
V
21 °C 10 km+ - 030°   030° 6 kt METAR LEGE 230730Z 03006KT 360V070 CAVOK 21/16 Q1007
09:00
V
20 °C 10 km+ - 040°   040° 6 kt METAR LEGE 230700Z 04006KT 360V080 CAVOK 20/16 Q1007
08:30
V
19 °C 10 km+ - 010°   010° 6 kt METAR LEGE 230630Z 01006KT 300V060 CAVOK 19/16 Q1007
08:00
V
18 °C 10 km+ - 360°   360° 3 kt METAR LEGE 230600Z 36003KT 290V050 9999 FEW060 18/16 Q1007
07:30
V
17 °C 10 km+ - 030°   030° 6 kt METAR LEGE 230530Z 03006KT 010V070 9999 FEW080 17/15 Q1007
07:00
V
16 °C 10 km+ - 020°   020° 7 kt METAR LEGE 230500Z 02007KT 350V050 9999 FEW080 16/15 Q1007
06:30
V
16 °C 10 km+ - 020°   020° 10 kt METAR LEGE 230430Z 02010KT 350V050 9999 FEW080 16/15 Q1006
06:00
V
17 °C 10 km+ - 010°   010° 9 kt METAR LEGE 230400Z 01009KT 340V040 CAVOK 17/15 Q1007
05:30
V
15 °C 10 km+ - 020°   020° 4 kt METAR LEGE 230330Z 02004KT 340V060 CAVOK 15/13 Q1007
05:00
V
16 °C 10 km+ - 020°   020° 8 kt METAR LEGE 230300Z 02008KT CAVOK 16/13 Q1007
04:30
V
13 °C 10 km+ - 020°   020° 6 kt METAR LEGE 230230Z 02006KT CAVOK 13/10 Q1007
04:00
V
15 °C 10 km+ - 320°   320° 2 kt METAR LEGE 230200Z 32002KT CAVOK 15/11 Q1007
03:30
V
14 °C 10 km+ - 060°   060° 4 kt METAR LEGE 230130Z 06004KT 020V170 CAVOK 14/11 Q1007
03:00
V
14 °C 10 km+ - 020°   020° 3 kt METAR LEGE 230100Z 02003KT CAVOK 14/11 Q1007
02:30
V
15 °C 10 km+ - Var   000° 0 kt METAR LEGE 230030Z 00000KT CAVOK 15/11 Q1008
02:00
V
16 °C 10 km+ - Var   000° 0 kt METAR LEGE 230000Z 00000KT CAVOK 16/11 Q1008
01:30
V
16 °C 10 km+ - 020°   020° 2 kt METAR LEGE 222330Z 02002KT CAVOK 16/12 Q1008
01:00
V
17 °C 10 km+ - Var   Var 1 kt METAR LEGE 222300Z VRB01KT CAVOK 17/12 Q1008
00:30
V
17 °C 10 km+ - Var   Var 1 kt METAR LEGE 222230Z VRB01KT CAVOK 17/12 Q1009
00:00
V
18 °C 10 km+ - Var   Var 2 kt METAR LEGE 222200Z VRB02KT CAVOK 18/12 Q1009

22 mei 2022

Tijd Code Weer Temp. Zicht Wolken Wind METAR/SPECI
23:30
V
17 °C 10 km+ - 060°   060° 1 kt METAR LEGE 222130Z 06001KT CAVOK 17/12 Q1009
23:00
V
17 °C 10 km+ - Var   Var 2 kt METAR LEGE 222100Z VRB02KT CAVOK 17/12 Q1009
22:30
V
19 °C 10 km+ - 180°   180° 3 kt METAR LEGE 222030Z 18003KT 140V240 CAVOK 19/11 Q1008
22:00
V
19 °C 10 km+ - 180°   180° 5 kt METAR LEGE 222000Z 18005KT CAVOK 19/10 Q1008
21:30
V
21 °C 10 km+ - 180°   180° 2 kt METAR LEGE 221930Z 18002KT CAVOK 21/09 Q1008
21:00
V
24 °C 10 km+ - 190°   190° 9 kt METAR LEGE 221900Z 19009KT 160V220 CAVOK 24/07 Q1008
20:30
V
25 °C 10 km+ - 190°   190° 13 kt METAR LEGE 221830Z 19013KT CAVOK 25/03 Q1008
20:00
V
26 °C 10 km+ - 190°   190° 13 kt METAR LEGE 221800Z 19013KT CAVOK 26/05 Q1008
19:30
V
28 °C 10 km+ - 170°   170° 11 kt METAR LEGE 221730Z 17011KT CAVOK 28/05 Q1008
19:00
V
28 °C 10 km+ - 180°   180° 11 kt METAR LEGE 221700Z 18011KT CAVOK 28/06 Q1008
18:30
V
32 °C 10 km+ - 200°   200° 15 kt METAR LEGE 221630Z 20015KT 170V240 CAVOK 32/05 Q1008
18:00
V
32 °C 10 km+ - 200°   200° 14 kt METAR LEGE 221600Z 20014KT 170V240 CAVOK 32/05 Q1008
17:30
V
33 °C 10 km+ - 190°   190° 15 kt METAR LEGE 221530Z 19015KT 170V230 CAVOK 33/05 Q1008
17:00
V
34 °C 10 km+ - 200°   200° 15 kt METAR LEGE 221500Z 20015KT 180V240 9999 FEW070 34/05 Q1008
16:30
V
35 °C 10 km+ - 200°   200° 16 kt METAR LEGE 221430Z 20016KT 160V220 9999 FEW070 35/06 Q1008
16:00
V
35 °C 10 km+ - 170°   170° 12 kt METAR LEGE 221400Z 17012KT 140V210 9999 FEW070 35/08 Q1008
15:30
V
35 °C 10 km+ - 180°   180° 17 kt METAR LEGE 221330Z 18017KT 160V220 9999 FEW070 35/09 Q1009
15:00
V
34 °C 10 km+ - 180°   180° 15 kt METAR LEGE 221300Z 18015KT 160V220 9999 FEW070 34/09 Q1009
14:30
V
34 °C 10 km+ - 180°   180° 11 kt METAR LEGE 221230Z 18011KT 130V230 9999 FEW070 34/10 Q1009
14:00
V
34 °C 10 km+ - 190°   190° 14 kt METAR LEGE 221200Z 19014KT 140V220 9999 FEW070 34/05 Q1010
13:30
V
34 °C 10 km+ - 190°   190° 11 kt METAR LEGE 221130Z 19011KT 150V220 9999 FEW070 34/06 Q1010
13:00
V
30 °C 10 km+ - 050°   050° 4 kt METAR LEGE 221100Z 05004KT 340V110 9999 FEW060 30/11 Q1011
12:30
V
29 °C 10 km+ - Var   Var 3 kt METAR LEGE 221030Z VRB03KT 9999 FEW060 29/13 Q1011
12:00
V
28 °C 10 km+ - 190°   190° 2 kt METAR LEGE 221000Z 19002KT CAVOK 28/10 Q1012
11:30
V
26 °C 10 km+ - Var   Var 2 kt METAR LEGE 220930Z VRB02KT CAVOK 26/12 Q1012
11:00
V
24 °C 10 km+ - 030°   030° 2 kt METAR LEGE 220900Z 03002KT CAVOK 24/12 Q1012
10:30
V
23 °C 10 km+ - 070°   070° 2 kt METAR LEGE 220830Z 07002KT CAVOK 23/12 Q1012
10:00
V
21 °C 10 km+ - 050°   050° 3 kt METAR LEGE 220800Z 05003KT 010V090 CAVOK 21/12 Q1012
09:30
V
20 °C 10 km+ - 100°   100° 1 kt METAR LEGE 220730Z 10001KT CAVOK 20/12 Q1012
09:00
V
19 °C 10 km+ - 080°   080° 1 kt METAR LEGE 220700Z 08001KT CAVOK 19/13 Q1013
08:30
V
17 °C 10 km+ - 040°   040° 2 kt METAR LEGE 220630Z 04002KT CAVOK 17/15 Q1013
08:00
V
16 °C 10 km+ - Var   000° 0 kt METAR LEGE 220600Z 00000KT CAVOK 16/14 Q1013
07:30
V
14 °C 10 km+ - Var   Var 1 kt METAR LEGE 220530Z VRB01KT CAVOK 14/13 Q1013
07:00
V
13 °C 10 km+ - Var   000° 0 kt METAR LEGE 220500Z 00000KT CAVOK 13/12 Q1013
06:30
V
13 °C 8 km - 330°   330° 1 kt METAR LEGE 220430Z 33001KT 8000 NSC 13/12 Q1013
06:00
V
13 °C 8 km - Var   Var 2 kt METAR LEGE 220400Z VRB02KT 8000 NSC 13/12 Q1013
05:30
V
12 °C 10 km+ - 020°   020° 4 kt METAR LEGE 220330Z 02004KT CAVOK 12/12 Q1013
05:00
V
13 °C 10 km+ - 040°   040° 2 kt METAR LEGE 220300Z 04002KT CAVOK 13/11 Q1013
04:30
V
13 °C 10 km+ - Var   Var 1 kt METAR LEGE 220230Z VRB01KT CAVOK 13/12 Q1013
04:00
V
13 °C 10 km+ - Var   Var 1 kt METAR LEGE 220200Z VRB01KT CAVOK 13/12 Q1014
03:30
V
15 °C 10 km+ - Var   000° 0 kt METAR LEGE 220130Z 00000KT CAVOK 15/12 Q1014
03:00
V
15 °C 10 km+ - Var   Var 1 kt METAR LEGE 220100Z VRB01KT CAVOK 15/13 Q1014
02:30
V
15 °C 10 km+ - Var   000° 0 kt METAR LEGE 220030Z 00000KT CAVOK 15/14 Q1015
02:00
V
16 °C 10 km+ - Var   000° 0 kt METAR LEGE 220000Z 00000KT CAVOK 16/14 Q1015
01:30
V
16 °C 10 km+ - Var   Var 1 kt METAR LEGE 212330Z VRB01KT CAVOK 16/14 Q1015
01:00
V
16 °C 10 km+ - Var   Var 1 kt METAR LEGE 212300Z VRB01KT CAVOK 16/14 Q1016
00:30
V
17 °C 10 km+ - 020°   020° 4 kt METAR LEGE 212230Z 02004KT CAVOK 17/15 Q1016
00:00
V
18 °C 10 km+ - 010°   010° 6 kt METAR LEGE 212200Z 01006KT CAVOK 18/15 Q1016

21 mei 2022

Tijd Code Weer Temp. Zicht Wolken Wind METAR/SPECI
23:30
V
19 °C 10 km+ - 010°   010° 6 kt METAR LEGE 212130Z 01006KT 340V040 CAVOK 19/15 Q1016
23:00
V
20 °C 10 km+ - 010°   010° 5 kt METAR LEGE 212100Z 01005KT CAVOK 20/15 Q1016
22:30
V
19 °C 10 km+ - 020°   020° 5 kt METAR LEGE 212030Z 02005KT CAVOK 19/16 Q1016
22:00
V
19 °C 10 km+ - 020°   020° 4 kt METAR LEGE 212000Z 02004KT CAVOK 19/16 Q1016
21:30
V
21 °C 10 km+ - 020°   020° 3 kt METAR LEGE 211930Z 02003KT CAVOK 21/16 Q1015
21:00
V
22 °C 10 km+ - 020°   020° 4 kt METAR LEGE 211900Z 02004KT 360V060 CAVOK 22/16 Q1015
20:30
V
25 °C 10 km+ - Var   Var 2 kt METAR LEGE 211830Z VRB02KT CAVOK 25/09 Q1015
20:00
V
26 °C 10 km+ - 070°   070° 4 kt METAR LEGE 211800Z 07004KT 030V110 CAVOK 26/08 Q1015
19:30
V
28 °C 10 km+ - 190°   190° 4 kt METAR LEGE 211730Z 19004KT CAVOK 28/08 Q1015
19:00
V
29 °C 10 km+ - 190°   190° 15 kt METAR LEGE 211700Z 19015KT CAVOK 29/06 Q1015
18:30
V
30 °C 10 km+ - 190°   190° 16 kt METAR LEGE 211630Z 19016KT 160V220 CAVOK 30/06 Q1015
18:00
V
30 °C 10 km+ - 190°   190° 14 kt METAR LEGE 211600Z 19014KT CAVOK 30/07 Q1015
17:30
V
31 °C 10 km+ - 180°   180° 15 kt METAR LEGE 211530Z 18015KT 9999 FEW045 31/09 Q1015
17:00
V
31 °C 10 km+ - 190°   190° 20 kt METAR LEGE 211500Z 19020KT 9999 FEW035 31/10 Q1016
Oudere gegevens

Installeer onze app

Gemakkelijke toegang tot al het luchtvaartweer op je mobiele telefoon en tablet.
Met veel functies die niet op de website beschikbaar zijn, zoals offline ondersteuning en een persoonlijke lijst van vliegvelden.

Met cookies volgen wij en derde partijen jouw internetgedrag binnen onze site. Als je verdergaat gaan we ervan uit dat je dit goedvindt. Meer info